星链-37289(STARLINK-37289)

导读

STARLINK-37289(NORAD编号68545)是SpaceX星链(Starlink)卫星互联网星座中的一颗低轨通信卫星,隶属于星链第二代卫星组网序列。星链星座旨在为全球提供低延迟、高速率的卫星互联网覆盖服务,该卫星进入近地轨道部署,为补全全球网络覆盖、提升星座容量密度发挥作用。作为商业低轨卫星,它延续星链标准设计,依托星链卫星批量发射部署模式,推进SpaceX全球卫星互联网的组网进程,目前已进入预定轨道正常运行。

基本信息
目录编号:
68545
目录名称:
STARLINK-37289
国际标识:
2026-070D
轨道中心:
EARTH
卫星名称:
星链-37289
卫星全名:
星链-37289(STARLINK-37289)
卫星状态:
在轨 (已飞行163 天)
发射日期:
2026-04-02 UTC
国别 :
美国 (US)
星等 :
--
该卫星已列入 空间交会检测服务 Space Conjunction Data Service (SCDS) ,当前飞行风险评估等级: 无高风险
轨道信息
数据来源 国际轨道数据
星历时间: 2026-09-11T15:31:08+0800
20小时前
查看轨道信息
半长轴: 6840.719km
偏心率: 0.0001005
轨道倾角: 53.159°
近地点辐角 87.968°
升交点赤经 216.908°
平近点角 272.144°
近地点: 461.894km
远地点: 463.27km
周期: 93.845分钟
每日圈数: 15.344411
详细信息
固有亮度:
5
最大亮度:
2.5
卫星平台:
Starlink V1.0
覆盖范围:
全球
运营商:
太空探索技术公司
运营商所在国:
美国
制造商(研发单位):
太空探索技术公司
制造商所在国:
美国
使用方式:
暂无
卫星简介
Starlink 计划是 SpaceX 推出的全球卫星互联网项目,通过发射低轨道卫星,为全球尤其是偏远地区提供高速、低延迟的互联网服务。自 2019 年起,Starlink 已部署数千颗卫星,旨在缩小全球数字鸿沟,推动互联网普及。该项目还为军事、航空等行业提供通信支持,带来广泛经济效益。
2D轨道图
3D轨道图
轨道高度分析图
轨道倾角分析图
轨道综合分析图
查看轨道综合分析图
交会数据列表
事件ID 空间交会对象 最接近时刻(TCA) 交会距离 交会风险概率(CRP) 交会风险指数(CRI) 操作
CDM_260909-162805-314006-854522
2026-09-09T
16:28:50+0000
2.963 km
极远距离
1.2152E-6 低风险 0.37
与全量物体交会距离演化趋势
与全量物体交会风险概率演化趋势